North Adams, MA

2:16 AM EDT on July 25, 2017 (GMT -0400)
Harriman And West

Weather History for KAQW - December, 2012

Change the Weather History Date:

Monday, December 24, 2012

  Actual Average Record
Temperature  
Mean Temperature 30 °F -  
Max Temperature 34 °F 33 °F 70 °F (2015)
Min Temperature 25 °F 18 °F 7 °F (2000)
Degree Days  
Heating Degree Days 36    
Moisture  
Dew Point 16 °F    
Average Humidity 57    
Maximum Humidity 75    
Minimum Humidity 44    
Precipitation  
Precipitation 0.00 in - - ()
Sea Level Pressure  
Sea Level Pressure 30.01 in    
Wind  
Wind Speed 9 mph (West)    
Max Wind Speed 18 mph    
Max Gust Speed 25 mph    
Visibility 10 miles    
Events Snow    
Averages and records for this station are not official NWS values.
T = Trace of Precipitation, MM = Missing Value Source: NWS Daily Summary

Daily Weather History Graph

Daily Weather History Graph

Search for Another Location

Airport or City:

Trip Planner

Search our weather history database for the weather conditions in past years. The results will help you decide how hot, cold, wet, or windy it might be!

Date:

Astronomy

Dec. 24, 2012 Rise Set
Actual Time 7:21 AM EST 4:23 PM EST
Civil Twilight 6:49 AM EST 4:56 PM EST
Nautical Twilight 6:13 AM EST 5:31 PM EST
Astronomical Twilight 5:38 AM EST 6:06 PM EST
Moon 1:51 PM EST (12/24) 3:55 AM EST (12/24)
Length of Visible Light 10h 07m
Length of Day
9h 02m
Waxing Gibbous, 88% of the Moon is Illuminated
Dec 24
Waxing Gibbous
Dec 28
Full
Jan 4
Last Quarter
Jan 11
New
Jan 18
First Quarter

Hourly Weather History & Observations

Time (EST) Temp. Windchill Dew Point Humidity Pressure Visibility Wind Dir Wind Speed Gust Speed Precip Events Conditions
12:52 AM 33.1 °F 26.1 °F 19.9 °F 59% 29.89 in 9.0 mi West 8.1 mph 21.9 mph 0.00 in Snow Light Snow
1:52 AM 33.1 °F 24.9 °F 19.9 °F 59% 29.91 in 10.0 mi West 10.4 mph 18.4 mph 0.00 in   Overcast
2:52 AM 32.0 °F 21.2 °F 19.9 °F 61% 29.94 in 9.0 mi West 16.1 mph 24.2 mph 0.00 in Snow Light Snow
3:12 AM 32.0 °F 23.0 °F 19.4 °F 60% 29.92 in 10.0 mi West 11.5 mph 19.6 mph 0.00 in   Overcast
3:52 AM 30.9 °F 19.1 °F 18.0 °F 59% 29.95 in 10.0 mi West 18.4 mph 25.3 mph 0.00 in   Overcast
4:52 AM 30.0 °F 22.4 °F 17.1 °F 59% 29.97 in 10.0 mi West 8.1 mph - N/A   Overcast
5:52 AM 30.0 °F 21.7 °F 17.1 °F 59% 30.00 in 10.0 mi West 9.2 mph - N/A   Overcast
6:50 AM 28.4 °F 17.5 °F 15.8 °F 59% 30.00 in 10.0 mi West 13.8 mph 20.7 mph N/A   Overcast
6:52 AM 28.9 °F 20.4 °F 15.1 °F 56% 30.03 in 10.0 mi West 9.2 mph 20.7 mph N/A   Overcast
7:52 AM 28.9 °F 19.2 °F 12.0 °F 49% 30.06 in 10.0 mi West 11.5 mph 19.6 mph N/A   Overcast
8:52 AM 28.9 °F 21.1 °F 12.9 °F 51% 30.08 in 10.0 mi West 8.1 mph - N/A   Overcast
9:52 AM 30.0 °F 23.2 °F 14.0 °F 51% 30.08 in 10.0 mi WNW 6.9 mph - N/A   Overcast
10:52 AM 30.9 °F 24.3 °F 14.0 °F 50% 30.08 in 10.0 mi Variable 6.9 mph - N/A   Mostly Cloudy
11:52 AM 32.0 °F 26.4 °F 14.0 °F 48% 30.04 in 10.0 mi NW 5.8 mph - N/A   Clear
12:52 PM 33.1 °F 26.9 °F 14.0 °F 46% 30.06 in 10.0 mi NNW 6.9 mph - N/A   Clear
1:52 PM 34.0 °F 28.8 °F 14.0 °F 44% 30.05 in 10.0 mi Variable 5.8 mph - N/A   Clear
2:52 PM 33.1 °F - 14.0 °F 46% 30.05 in 10.0 mi Calm Calm - N/A   Clear
3:52 PM 30.9 °F 27.5 °F 17.1 °F 57% 30.05 in 10.0 mi South 3.5 mph - N/A   Clear
4:52 PM 27.0 °F - 17.1 °F 66% 30.05 in 10.0 mi Calm Calm - N/A   Clear
5:52 PM 25.0 °F - 17.1 °F 72% 30.04 in 10.0 mi Calm Calm - N/A   Clear
6:52 PM 25.0 °F - 18.0 °F 75% 30.05 in 10.0 mi Calm Calm - N/A   Clear
7:52 PM 26.1 °F 21.9 °F 17.1 °F 69% 30.04 in 10.0 mi East 3.5 mph - N/A   Clear
9:52 PM 28.0 °F 20.8 °F 15.1 °F 58% 30.00 in 10.0 mi East 6.9 mph - N/A   Clear
10:52 PM 28.0 °F 24.2 °F 16.0 °F 61% 30.01 in 10.0 mi SE 3.5 mph - N/A   Clear
11:52 PM 28.0 °F 21.7 °F 16.0 °F 61% 29.99 in 10.0 mi East 5.8 mph - N/A   Clear